map of TAZ home
TAZ - Airport
Location
City:  Dashoguz, Dasoguz, Turkmenistan
Near (Alt.):Khodzhakumbet
Name:Dashoguz Airport
ICAO:UTAT
IATA:TAZ

Details
Type:Airport (Aerodrome, Airfield)
Use:Public/Civil, International (customs port of entry)
Latitude:4145'42"N (41.761667)
Longitude:5949'36"E (59.826667)
Elevation:279 ft (85 m)
Variation:6.45E (WMM2015v2 magnetic declination)
0.07 annual change
Runways:2
Longest:8858 × 138 ft (2700 × 42 m), paved

Time
Time Zone:UTC+5
Local Time:

Weather
METAR:UTAT 041200Z 34012KT 9999 BKN013 OVC100 01/M02 Q1028 R26/CLRD70 NOSIG

Related Locations
Nearby:
Farthest:IPC: 11257 mi / 18117 km
Easter Island (Isla de Pascua, Rapa Nui) [Mataveri Intl], VS, CL

Find:

   beyond  
but within

Other Information
Maps:
NOTAMs:
Links:
Sources:

  
  • flag of Turkmenistan
  

Airport Diagram

Airport diagram for TAZ

Airport diagram PDF from AIP of the Russian Federation

Sectional Chart

Flight Planning
at skyvector.com

Satellite Image

Google Maps Satellite view

Yandex Maps Satellite view


 

Copyright © 2004-2019 Karl L. Swartz. All rights reserved.
The Great Circle Mapper name and logo are trademarks of the Great Circle Mapper.
All other trademarks mentioned herein belong to their respective owners.
Please see credits for attibutions and further copyright information.

  Follow gcmap on Facebook Follow gcmap on Twitter GCmap on LinkedIn

hCard Microformat

Geo Microformat